Home > Time Zones > World Clock > Weather > Italy > Genoa > Past weeks

Flag for Italy Weather past 2 weeks in Genoa, Italy

Now
59 °F

Clear.


Feels Like: 58 °F
Forecast: 60 / 68 °F
Wind: 6 mph from North

Location: Genova / Sestri

Current Time: May 29, 2015 at 4:14:02 AM

Latest Report: May 29, 2015 at 3:20 AM


Visibility: 10 mi

Pressure: 30.04 "Hg

Humidity: 72%

Dew point: 50 °F

Location of GenoaLocation

Historic Weather in Genoa — Graph

°F

Genoa temperature yesterday

Maximum temperature yesterday: 70 °F (at 11:20 AM)
Minimum temperature yesterday: 59 °F (at 5:20 AM)
Average temperature yesterday: 65 °F

Past Weeks' High & Low Weather Summary

 TemperatureHumidityPressure
High84 °F (May 17, 2:20 PM)100% (May 26, 4:50 AM)30.09 "Hg (May 26, 4:50 AM)
Low54 °F (May 21, 7:20 AM)24% (May 27, 3:50 PM)29.62 "Hg (May 15, 8:50 AM)
Average66 °F65%29.90 "Hg
* Reported May 14 3:20 AM — May 29 2:50 AM, Genoa, Weather by CustomWeather, © 2015

Note: Actual official high and low records may vary slightly from our data, if they occured in-between our weather recording intervals... More about our weather records

Advertising

Genoa weather history for previous 24 hours

 ConditionsComfort  
Time TempWeatherWind HumidityBarometerVisibility
2:50 AM
Fri, May 29
59 °FClear.5 mph68%30.04 "Hg10 mi
2:20 AM61 °FClear.6 mph68%30.04 "Hg10 mi
1:50 AM61 °FClear.7 mph68%30.04 "Hg10 mi
1:20 AM61 °FClear.6 mph68%30.04 "Hg10 mi
11:50 PM
Thu, May 28
63 °FClear.5 mph68%30.04 "Hg10 mi
11:20 PM63 °FClear.5 mph68%30.04 "Hg10 mi
10:50 PM64 °FClear.3 mph68%30.04 "Hg10 mi
10:20 PM64 °FClear.2 mph68%30.04 "Hg10 mi
9:50 PM64 °FSunny.3 mph73%30.04 "Hg10 mi
9:20 PM64 °FSunny.2 mph73%30.04 "Hg10 mi
8:50 PM64 °FSunny.2 mph73%30.04 "Hg10 mi
8:20 PM66 °FPassing clouds.3 mph68%30.04 "HgN/A
7:50 PM66 °FPassing clouds.3 mph68%30.04 "HgN/A
7:20 PM68 °FPassing clouds.3 mph64%30.04 "HgN/A
6:50 PM68 °FPassing clouds.3 mph69%30.04 "HgN/A
6:20 PM68 °FPassing clouds.5 mph69%30.04 "HgN/A
5:50 PM70 °FPassing clouds.5 mph64%30.04 "HgN/A
5:20 PM70 °FPassing clouds.5 mph64%30.07 "HgN/A
4:50 PM70 °FPassing clouds.6 mph60%30.07 "HgN/A
4:20 PM70 °FPassing clouds.6 mph60%30.07 "HgN/A
3:50 PM70 °FPassing clouds.7 mph60%30.07 "HgN/A
3:20 PM70 °FPassing clouds.8 mph60%30.07 "HgN/A
2:50 PM70 °FPassing clouds.7 mph60%30.07 "HgN/A
2:20 PM70 °FPassing clouds.7 mph57%30.07 "HgN/A
1:50 PM70 °FPassing clouds.7 mph57%30.09 "HgN/A
12:50 PM70 °FPassing clouds.9 mph60%30.09 "HgN/A
12:20 PM68 °FScattered clouds.10 mph64%30.09 "HgN/A
11:50 AM68 °FScattered clouds.12 mph60%30.09 "HgN/A
11:20 AM70 °FPassing clouds.13 mph57%30.09 "HgN/A
10:50 AM64 °FPassing clouds.15 mph68%30.09 "HgN/A
10:20 AM66 °FPassing clouds.14 mph68%30.09 "HgN/A
9:50 AM68 °FScattered clouds.12 mph60%30.09 "HgN/A
9:20 AM68 °FScattered clouds.12 mph64%30.09 "HgN/A
8:50 AM68 °FPassing clouds.7 mph53%30.09 "HgN/A
8:20 AM66 °FPassing clouds.5 mph56%30.07 "HgN/A
7:50 AM63 °FPassing clouds.6 mph59%30.07 "HgN/A
7:20 AM63 °FPassing clouds.6 mph59%30.07 "HgN/A
6:50 AM61 °FPassing clouds.5 mph63%30.07 "HgN/A
6:20 AM59 °FClear.7 mph63%30.04 "Hg10 mi
5:50 AM59 °FClear.5 mph68%30.04 "Hg10 mi
5:20 AM59 °FClear.5 mph68%30.04 "Hg10 mi
4:50 AM61 °FClear.5 mph63%30.04 "Hg10 mi
4:20 AM61 °FClear.6 mph63%30.04 "Hg10 mi
Weather by CustomWeather, © 2015

See weather overviewHow to use our weather pages